When you browse on this site, cookies collect data to enhance your experience and personalize the content and advertising you see.
Visit our Privacy Policy to learn more. By continuing to use the site, you agree to this use of cookies and data.
  • In Italy
  • List of Countries
  • For 7 days
  • Water Temperature
  • Satellite Maps
  • Weather Map
  • Weather Widgets
  • user-avatar
    Login

    Hourly Weather Yalta

    Today, 21 July, Sunday

    Time Temperature Precipitation Wind Pressure Humidity
    00:00 +14°C° 0 mm 3 mps 740 mmHg 84%
    01:00 +14°C° 0 mm 3 mps 740 mmHg 85%
    02:00 +13°C° 0 mm 3 mps 740 mmHg 86%
    03:00 +13°C° 0 mm 3 mps 740 mmHg 88%
    04:00 +13°C° 0 mm 3 mps 740 mmHg 86%
    05:00 +13°C° 0 mm 3 mps 740 mmHg 85%
    06:00 +13°C° 0 mm 3 mps 740 mmHg 84%
    07:00 +16°C° 0 mm 3 mps 740 mmHg 80%
    08:00 +17°C° 0 mm 4 mps 741 mmHg 75%
    09:00 +19°C° 0 mm 4 mps 741 mmHg 71%
    10:00 +20°C° 0 mm 4 mps 741 mmHg 67%
    11:00 +21°C° 0 mm 4 mps 741 mmHg 63%
    12:00 +23°C° 0 mm 4 mps 741 mmHg 59%
    13:00 +23°C° 0 mm 4 mps 741 mmHg 59%
    14:00 +23°C° 0 mm 4 mps 740 mmHg 58%
    15:00 +25°C° 0 mm 4 mps 740 mmHg 57%
    16:00 +23°C° 0.1 mm 4 mps 740 mmHg 61%
    17:00 +24°C° 0.1 mm 3 mps 740 mmHg 65%
    18:00 +24°C° 0.1 mm 3 mps 740 mmHg 69%
    19:00 +21°C° 0.1 mm 3 mps 740 mmHg 74%
    20:00 +19°C° 0.1 mm 2 mps 740 mmHg 80%
    21:00 +18°C° 0.1 mm 2 mps 740 mmHg 85%
    22:00 +17°C° 0 mm 2 mps 740 mmHg 87%
    23:00 +16°C° 0 mm 2 mps 740 mmHg 89%

    Tomorrow, 22 July, Monday

    Time Temperature Precipitation Wind Pressure Humidity
    00:00 +16°C° 0 mm 2 mps 740 mmHg 91%
    01:00 +16°C° 0 mm 2 mps 740 mmHg 92%
    02:00 +15°C° 0 mm 2 mps 740 mmHg 93%
    03:00 +15°C° 0 mm 2 mps 740 mmHg 93%
    04:00 +15°C° 0 mm 2 mps 740 mmHg 93%
    05:00 +16°C° 0 mm 1 mps 740 mmHg 92%
    06:00 +16°C° 0 mm 1 mps 740 mmHg 92%
    07:00 +18°C° 0 mm 1 mps 740 mmHg 86%
    08:00 +20°C° 0 mm 1 mps 740 mmHg 80%
    09:00 +22°C° 0 mm 1 mps 740 mmHg 74%
    10:00 +23°C° 0 mm 1 mps 740 mmHg 70%
    11:00 +24°C° 0 mm 1 mps 740 mmHg 65%
    12:00 +25°C° 0 mm 2 mps 740 mmHg 60%
    13:00 +25°C° 0.1 mm 2 mps 740 mmHg 59%
    14:00 +25°C° 0.1 mm 1 mps 740 mmHg 58%
    15:00 +26°C° 0.1 mm 1 mps 739 mmHg 57%
    16:00 +26°C° 0.1 mm 1 mps 739 mmHg 59%
    17:00 +25°C° 0.1 mm 1 mps 739 mmHg 61%
    18:00 +25°C° 0.1 mm 1 mps 739 mmHg 63%
    19:00 +24°C° 0 mm 1 mps 739 mmHg 68%
    20:00 +22°C° 0 mm 1 mps 738 mmHg 72%
    21:00 +20°C° 0 mm 1 mps 738 mmHg 77%
    22:00 +20°C° 0 mm 1 mps 738 mmHg 78%
    23:00 +18°C° 0 mm 2 mps 738 mmHg 80%

    Day after tomorrow, 23 July, Tuesday

    Time Temperature Precipitation Wind Pressure Humidity
    00:00 +18°C° 0 mm 2 mps 738 mmHg 81%
    01:00 +18°C° 0 mm 2 mps 738 mmHg 79%
    02:00 +18°C° 0 mm 2 mps 737 mmHg 78%
    03:00 +18°C° 0 mm 2 mps 737 mmHg 76%
    04:00 +17°C° 1 mm 2 mps 737 mmHg 82%
    05:00 +17°C° 1 mm 2 mps 736 mmHg 89%
    06:00 +16°C° 1 mm 2 mps 736 mmHg 95%
    07:00 +17°C° 0.7 mm 3 mps 736 mmHg 94%
    08:00 +17°C° 0.7 mm 3 mps 736 mmHg 93%
    09:00 +17°C° 0.7 mm 4 mps 736 mmHg 92%
    10:00 +18°C° 0.3 mm 4 mps 736 mmHg 91%
    11:00 +19°C° 0.3 mm 4 mps 736 mmHg 89%
    12:00 +20°C° 0.3 mm 4 mps 736 mmHg 87%
    13:00 +21°C° 0.9 mm 4 mps 736 mmHg 85%
    14:00 +21°C° 0.9 mm 4 mps 736 mmHg 84%
    15:00 +22°C° 0.9 mm 3 mps 736 mmHg 82%
    16:00 +22°C° 1.2 mm 3 mps 736 mmHg 84%
    17:00 +23°C° 1.2 mm 2 mps 736 mmHg 85%
    18:00 +23°C° 1.2 mm 1 mps 736 mmHg 87%
    19:00 +21°C° 0.7 mm 2 mps 736 mmHg 90%
    20:00 +20°C° 0.7 mm 2 mps 736 mmHg 92%
    21:00 +19°C° 0.7 mm 3 mps 735 mmHg 95%
    22:00 +18°C° 0.4 mm 2 mps 736 mmHg 96%
    23:00 +18°C° 0.4 mm 2 mps 736 mmHg 97%

    24 July, Wednesday

    Time Temperature Precipitation Wind Pressure Humidity
    00:00 +18°C° 0.4 mm 2 mps 736 mmHg 97%
    01:00 +18°C° 0 mm 2 mps 736 mmHg 98%
    02:00 +19°C° 0 mm 1 mps 736 mmHg 98%
    03:00 +19°C° 0 mm 1 mps 736 mmHg 98%
    04:00 +19°C° 0 mm 1 mps 736 mmHg 98%
    05:00 +19°C° 0 mm 1 mps 736 mmHg 98%
    06:00 +19°C° 0 mm 1 mps 736 mmHg 98%
    07:00 +19°C° 0 mm 1 mps 736 mmHg 97%
    08:00 +19°C° 0 mm 1 mps 736 mmHg 96%
    09:00 +19°C° 0 mm 1 mps 736 mmHg 95%
    10:00 +18°C° 0.2 mm 2 mps 737 mmHg 94%
    11:00 +19°C° 0.2 mm 2 mps 737 mmHg 93%
    12:00 +19°C° 0.2 mm 2 mps 737 mmHg 92%
    13:00 +19°C° 0.1 mm 3 mps 738 mmHg 92%
    14:00 +19°C° 0.1 mm 3 mps 738 mmHg 92%
    15:00 +19°C° 0.1 mm 3 mps 738 mmHg 91%
    16:00 +19°C° 0 mm 3 mps 738 mmHg 91%
    17:00 +19°C° 0 mm 3 mps 738 mmHg 92%
    18:00 +19°C° 0 mm 3 mps 738 mmHg 92%
    19:00 +18°C° 0 mm 3 mps 738 mmHg 93%
    20:00 +18°C° 0 mm 3 mps 738 mmHg 95%
    21:00 +17°C° 0 mm 2 mps 738 mmHg 96%
    22:00 +17°C° 0 mm 3 mps 738 mmHg 96%
    23:00 +17°C° 0 mm 3 mps 739 mmHg 96%

    25 July, Thursday

    Time Temperature Precipitation Wind Pressure Humidity
    00:00 +17°C° 0 mm 3 mps 739 mmHg 96%
    01:00 +17°C° 0 mm 3 mps 739 mmHg 96%
    02:00 +17°C° 0 mm 3 mps 739 mmHg 97%
    03:00 +16°C° 0 mm 2 mps 739 mmHg 97%
    04:00 +16°C° 0.5 mm 3 mps 739 mmHg 97%
    05:00 +16°C° 0.5 mm 3 mps 739 mmHg 97%
    06:00 +16°C° 0.5 mm 3 mps 739 mmHg 97%
    07:00 +16°C° 0.7 mm 3 mps 739 mmHg 96%
    08:00 +17°C° 0.7 mm 3 mps 739 mmHg 96%
    09:00 +17°C° 0.7 mm 4 mps 739 mmHg 96%
    10:00 +17°C° 0.4 mm 4 mps 740 mmHg 95%
    11:00 +17°C° 0.4 mm 4 mps 740 mmHg 94%
    12:00 +18°C° 0.4 mm 4 mps 740 mmHg 94%
    13:00 +19°C° 0.1 mm 4 mps 740 mmHg 90%
    14:00 +20°C° 0.1 mm 4 mps 740 mmHg 86%
    15:00 +21°C° 0.1 mm 4 mps 740 mmHg 82%
    16:00 +21°C° 0.1 mm 3 mps 740 mmHg 81%
    17:00 +20°C° 0.1 mm 3 mps 740 mmHg 81%
    18:00 +20°C° 0.1 mm 3 mps 739 mmHg 81%
    19:00 +19°C° 0 mm 3 mps 740 mmHg 84%
    20:00 +18°C° 0 mm 3 mps 740 mmHg 87%
    21:00 +18°C° 0 mm 3 mps 740 mmHg 90%
    22:00 +18°C° 0 mm 3 mps 740 mmHg 91%
    23:00 +17°C° 0 mm 3 mps 739 mmHg 91%

    26 July, Friday

    Time Temperature Precipitation Wind Pressure Humidity
    00:00 +17°C° 0 mm 3 mps 739 mmHg 92%
    01:00 +17°C° 0 mm 3 mps 739 mmHg 91%
    02:00 +17°C° 0 mm 3 mps 739 mmHg 91%
    03:00 +17°C° 0 mm 3 mps 739 mmHg 90%
    04:00 +17°C° 0 mm 4 mps 739 mmHg 89%
    05:00 +17°C° 0 mm 4 mps 739 mmHg 89%
    06:00 +17°C° 0 mm 4 mps 739 mmHg 88%
    07:00 +18°C° 0 mm 4 mps 739 mmHg 87%
    08:00 +19°C° 0 mm 3 mps 739 mmHg 86%
    09:00 +19°C° 0 mm 3 mps 739 mmHg 86%
    10:00 +20°C° 0 mm 3 mps 739 mmHg 81%
    11:00 +21°C° 0 mm 3 mps 739 mmHg 76%
    12:00 +24°C° 0 mm 3 mps 739 mmHg 71%
    13:00 +24°C° 0 mm 3 mps 739 mmHg 67%
    14:00 +25°C° 0 mm 3 mps 738 mmHg 63%
    15:00 +26°C° 0 mm 4 mps 738 mmHg 60%
    16:00 +25°C° 0.1 mm 4 mps 738 mmHg 65%
    17:00 +23°C° 0.1 mm 4 mps 737 mmHg 70%
    18:00 +22°C° 0.1 mm 5 mps 737 mmHg 76%
    19:00 +21°C° 0 mm 5 mps 737 mmHg 77%
    20:00 +19°C° 0 mm 5 mps 737 mmHg 79%
    21:00 +16°C° 0 mm 5 mps 738 mmHg 81%
    22:00 +17°C° 0 mm 4 mps 738 mmHg 83%
    23:00 +15°C° 0 mm 4 mps 738 mmHg 85%
    Show more